Regional Weather Roundup
Issued by NWS Kansas City/Pleasant Hill, MO

Home | Current Version | Previous Version | Graphics & Text | Print | Product List | Glossary Off
Versions: 1 2 3 4 5 6 7 8 9 10 11 12 13 14 15 16 17 18 19 20 21 22 23 24 25 26 27 28 29 30 31 32 33 34 35 36 37 38 39 40 41 42 43 44 45 46 47 48 49 50

000
ASUS43 KEAX 211811
RWREAX

WEATHER ROUNDUP FOR EASTERN KANSAS AND NORTHWEST MISSOURI
NATIONAL WEATHER SERVICE KANSAS CITY/PLEASANT HILL MO
100 PM CDT TUE OCT 21 2014

KSZ040-057-103>105-MOZ028-029-037-043-211900-
...KANSAS CITY METROPOLITAN AREA...

CITY           SKY/WX    TMP DP  RH WIND       PRES   REMARKS
K.C. INTL      SUNNY     70  47  43 E3        30.12F
6HR MIN TEMP:  46; 6HR MAX TEMP:  70;

K.C. DOWNTOWN  SUNNY     71  44  37 VRB3      30.12F
6HR MIN TEMP:  45; 6HR MAX TEMP:  71;

LEES SUMMIT    SUNNY     70  44  39 VRB6      30.13F
6HR MIN TEMP:  47; 6HR MAX TEMP:  70;

OLATHE - IXD   SUNNY     71  42  35 VRB3      30.13F
6HR MIN TEMP:  43; 6HR MAX TEMP:  72;

OLATHE - OJC   SUNNY     72  42  34 MISG      30.12F
6HR MIN TEMP:  45; 6HR MAX TEMP:  72;

LAWRENCE       SUNNY     71  43  36 VRB3      30.12F

$$

MOZ001>008-011>017-020>025-030>033-038>040-044>046-053-054-211900-
...NORTHERN AND CENTRAL MISSOURI...

CITY           SKY/WX    TMP DP  RH WIND       PRES   REMARKS
ST. JOSEPH       N/A    N/A N/A N/A MISG      30.12F
6HR MIN TEMP:  34; 6HR MAX TEMP:  69;

MOSBY          CLEAR     70  41  35 CALM      30.12F
WHITEMAN AFB   SUNNY     70  45  41 CALM      30.13F
6HR MIN TEMP:  42; 6HR MAX TEMP:  70;

CLINTON        SUNNY     72  48  43 CALM      30.13F
SEDALIA        SUNNY     71  44  37 SW5       30.14F
6HR MIN TEMP:  47; 6HR MAX TEMP:  72;

WARSAW         NOT AVBL
MARSHALL       SUNNY     73  45  35 N5        30.13F
CHILLICOTHE      N/A     70  49  47 VRB3      30.13F
6HR MIN TEMP:  40; 6HR MAX TEMP:  70;

MOBERLY        SUNNY     70  43  37 NE6       30.15S HAZE
KIRKSVILLE     SUNNY     64  47  53 E8        30.15F
6HR MIN TEMP:  39; 6HR MAX TEMP:  64;


$$

MOZ041-047>049-056>058-063>065-088>090-097-211900-
...EASTERN AND SOUTHERN MISSOURI...

CITY           SKY/WX    TMP DP  RH WIND       PRES   REMARKS
ST. LOUIS INTL SUNNY     65  46  50 NE12      30.13F
6HR MIN TEMP:  48; 6HR MAX TEMP:  66;

SPIRIT OF STL  SUNNY     65  48  54 NE8       30.13F
COLUMBIA       SUNNY     71  45  39 N8        30.13F
JEFFERSON CITY SUNNY     69  46  43 W5        30.12F
MEXICO         SUNNY     70  50  49 E5        30.14S
ROLLA          SUNNY     68  45  43 VRB5      30.11F
LEBANON        SUNNY     70  41  35 CALM      30.13F
OSAGE BEACH    SUNNY     70  46  43 W6        30.13F
SPRINGFIELD    SUNNY     72  42  34 NW3       30.13F
BRANSON        SUNNY     70  50  49 CALM      30.14F
NEVADA         SUNNY     73  46  38 S5        30.13F
JOPLIN         SUNNY     73  49  42 CALM      30.12F
WEST PLAINS    SUNNY     70  45  40 VRB6      30.13F

$$

IAZ060-094-KSZ022-034>040-054-083-096-NEZ052-066-093-211900-
...KANSAS...SOUTHEAST NEBRASKA AND IOWA...

CITY           SKY/WX    TMP DP  RH WIND       PRES   REMARKS
TOPEKA         SUNNY     74  45  35 SE6       30.11F
6HR MIN TEMP:  38; 6HR MAX TEMP:  75;

MANHATTAN      SUNNY     76  47  35 VRB3      30.09F
EMPORIA        SUNNY     73  49  42 SE8       30.11F
CHANUTE        MOSUNNY   73  55  53 SE6       30.12F
WICHITA        MOSUNNY   77  56  48 S14       30.08F
OMAHA          SUNNY     68  42  38 S8        30.10F
LINCOLN        SUNNY     74  44  34 S10       30.09F
FALLS CITY     SUNNY     72  43  35 VRB5      30.10F
LAMONI         SUNNY     67  46  47 E3        30.13F
DES MOINES     SUNNY     63  43  48 E9        30.15F

$$




USA.gov is the U.S. government's official web portal to all federal, state and local government web resources and services.